SCP
0 0 0 0 0 0 0 0 0 0 0 0 0 0 0 0 0 0 0 0 0 0 0 0 0 1 1 1 1 1 2 3 3 2 1 1 1 0 0 0 0 0 0 0
0 0 0 0 0 0 0 0 0 0 0 0 0 0 0 0 0 0 0 0 0 0 0 0 0 1 1 1 1 1 2 3 3 2 1 1 1 0 0 0 0 0 0 0
0 0 0 0 0 0 0 0 0 0 0 0 0 0 0 0 0 0 0 0 0 0 0 0 0 0 1 1 1 1 2 2 2 2 1 1 0 0 0 0 0 0 0 0
0 0 0 0 0 0 0 0 0 0 0 0 0 0 0 0 0 0 0 0 0 0 0 0 0 0 1 1 2 2 1 1 2 1 1 1 0 0 0 0 0 0 0 0
0 0 0 0 0 0 0 0 0 0 0 0 0 0 0 0 0 0 0 0 0 0 0 0 0 0 1 1 2 2 2 1 1 1 1 0 0 0 0 0 0 0 0 0
0 0 0 0 0 0 0 0 0 0 0 0 0 0 0 0 0 0 0 0 0 0 0 0 0 0 0 1 2 2 1 1 1 1 0 0 0 0 0 0 0 0 0 0
0 0 0 0 0 0 0 0 0 0 0 0 0 0 0 0 0 0 0 0 0 0 0 0 0 0 0 0 1 1 1 1 1 0 0 0 0 0 0 0 0 0 0 0
0 0 0 0 0 0 0 0 0 0 0 0 0 0 0 0 0 0 0 0 0 0 0 0 0 0 0 0 0 0 1 1 1 0 0 0 0 0 0 0 0 0 0 0
0 0 0 0 0 0 0 0 0 0 0 0 0 0 0 0 0 0 0 0 0 0 0 0 0 0 0 0 0 0 0 1 1 1 0 0 0 0 0 0 0 0 0 0
0 0 0 0 0 0 0 0 0 0 0 0 0 0 0 0 0 0 0 0 0 0 0 0 0 0 0 0 0 0 0 0 0 1 1 1 0 0 0 0 0 0 0 0
0 0 0 0 0 0 0 0 0 0 0 0 0 0 0 0 0 0 0 0 0 0 0 0 0 0 0 0 0 0 0 0 0 0 1 1 0 0 0 0 0 0 0 0
0 0 0 0 0 0 0 0 0 0 0 0 0 0 0 0 0 0 0 0 0 0 0 0 0 0 0 0 0 0 0 0 0 0 0 0 0 0 0 0 0 0 0 0
0 0 0 0 0 0 0 0 0 0 0 0 0 0 0 0 0 0 0 0 0 0 0 0 0 0 0 0 0 0 0 0 0 0 0 0 0 0 0 0 0 0 0 0
0 0 0 0 0 0 0 0 0 0 0 0 0 0 0 0 0 0 0 0 0 0 0 0 0 0 0 0 0 0 0 0 0 0 0 0 0 0 0 0 0 0 0 0
0 0 0 0 0 0 0 0 0 0 0 0 0 0 0 0 0 0 0 0 0 0 0 0 0 0 0 0 0 0 0 0 0 0 0 0 0 0 0 0 0 0 0 0
0 0 0 0 0 0 0 0 0 0 0 0 0 0 0 0 0 0 0 0 0 0 0 0 0 0 0 0 0 0 0 0 0 0 0 0 0 0 0 0 0 0 0 0
0 0 0 0 0 0 0 0 0 0 0 0 0 0 0 0 0 0 0 0 0 0 0 0 0 0 0 0 0 0 0 0 0 0 0 0 0 0 0 0 0 0 0 0
0 0 0 0 0 0 0 0 0 0 0 0 0 0 0 0 0 0 0 0 0 0 0 0 0 0 0 0 0 0 0 0 0 0 0 0 0 0 0 0 0 0 0 0
0 0 0 0 0 0 0 0 0 0 0 0 0 0 0 0 0 0 0 0 0 0 0 0 0 0 0 0 0 0 0 0 0 0 0 0 0 0 0 0 0 0 0 0
0 0 0 0 0 0 0 0 0 0 0 0 0 0 0 0 0 0 0 0 0 0 0 0 0 0 0 0 0 0 0 0 0 0 0 0 0 0 0 0 0 0 0 0
0 0 0 0 0 0 0 0 0 0 0 0 0 0 0 0 0 0 0 0 0 0 0 0 0 0 0 0 0 0 0 0 0 0 0 0 0 0 0 0 0 0 0 0
0 0 0 0 0 0 0 0 0 0 0 0 0 0 0 0 0 0 0 0 0 0 0 0 0 0 0 0 0 0 0 0 0 0 0 0 0 0 0 0 0 0 0 0
0 0 0 0 0 0 0 0 0 0 0 0 0 0 0 0 0 0 0 0 0 0 0 0 0 0 0 0 0 0 0 0 0 0 0 0 0 0 0 0 0 0 0 0
0 0 0 0 0 0 0 0 0 0 0 0 0 0 0 0 0 0 0 0 0 0 0 0 0 0 0 0 0 0 0 0 0 0 0 0 0 0 0 0 0 0 0 0
0 0 0 0 0 0 0 0 0 0 0 0 0 0 0 0 0 0 0 0 0 0 0 0 0 0 0 0 0 0 0 0 0 0 0 0 0 0 0 0 0 0 0 0
0 0 0 0 0 0 0 0 0 0 0 0 0 0 0 0 0 0 0 0 0 0 0 0 0 0 0 0 0 0 0 0 0 0 0 0 0 0 0 0 0 0 0 0
Wind_Speed
2 4 1 4 4 4 2 2 4 5 2 1 5 7 6 3 3 3 3 3 3 2 1 1 2 2 3 3 3 3 3 2 2 1 1 1 2 2 2 2 3 3 3 3
4 1 4 2 1 1 1 1 3 4 3 2 4 6 5 3 3 4 5 4 3 2 1 1 1 2 2 2 2 2 2 2 2 1 1 1 1 1 1 2 3 3 3 3
3 4 2 1 1 1 1 3 3 3 5 3 2 5 3 1 1 2 3 3 3 3 3 2 1 1 1 1 1 1 1 2 2 2 1 2 2 2 2 3 2 3 3 3
1 2 0 1 1 1 3 3 2 2 1 3 0 4 5 2 1 2 2 2 2 1 2 2 1 1 0 0 0 1 1 1 1 1 1 1 1 1 2 2 2 3 2 2
1 1 1 1 2 2 3 2 2 2 1 2 2 3 7 1 3 4 4 3 3 2 2 2 1 1 1 0 0 1 1 1 1 1 1 1 1 1 1 2 2 2 3 3
1 1 0 1 1 1 0 3 3 3 3 3 4 4 7 4 5 4 4 4 3 2 2 1 1 1 0 1 1 1 1 1 1 1 1 1 1 1 2 2 2 2 2 2
3 3 2 1 1 2 3 4 3 4 2 6 2 3 8 4 3 4 5 4 4 3 2 2 1 1 0 1 1 1 1 1 1 1 1 1 1 1 1 2 2 2 2 2
0 4 2 0 2 2 2 5 5 4 4 5 2 5 6 3 2 1 3 3 3 2 2 1 1 1 1 0 1 1 1 2 2 1 2 2 1 1 1 2 2 3 2 2
3 3 2 1 0 2 2 2 3 4 1 3 5 5 6 1 1 2 1 1 1 1 1 1 1 1 1 1 1 1 1 2 2 2 2 2 2 2 2 2 2 3 3 3
3 2 3 2 2 2 2 4 3 3 2 4 5 5 5 4 3 2 2 2 2 1 1 1 1 1 1 1 1 1 1 2 2 2 2 2 2 2 2 2 3 3 4 3
2 2 2 2 2 3 2 2 2 2 3 3 4 7 4 5 4 4 4 3 3 2 2 2 1 1 1 1 1 1 2 2 2 2 2 2 2 3 2 2 3 3 3 3
2 4 2 5 3 1 2 4 5 3 3 3 3 8 3 2 2 3 3 2 2 2 2 1 1 1 1 1 2 2 2 2 3 3 3 3 2 2 3 3 4 3 3 3
3 4 1 5 3 2 1 2 3 3 2 3 4 8 2 1 1 1 2 2 2 1 1 1 1 1 1 2 2 2 2 3 3 3 2 3 2 2 3 3 3 3 3 3
4 4 6 7 6 3 4 4 3 4 4 5 8 9 6 4 3 3 2 2 2 2 2 1 2 2 2 2 2 2 3 3 3 2 2 2 3 3 3 3 3 3 3 2
4 3 3 5 4 3 5 6 5 7 7 8 8 8 10 7 6 4 3 2 2 2 2 2 2 2 2 2 3 3 3 3 3 2 2 3 3 3 3 3 3 3 3 2
3 2 1 3 3 3 6 8 8 8 7 8 8 11 8 4 3 3 3 3 3 3 3 3 3 2 2 3 3 3 3 3 3 2 3 3 3 3 3 3 3 2 2 2
3 4 2 3 3 3 7 8 8 6 6 6 9 10 4 3 4 4 5 4 4 3 3 3 3 3 3 3 3 3 3 3 2 3 3 3 3 3 3 3 2 2 2 2
5 4 2 1 2 5 7 2 4 5 6 6 6 6 4 4 4 3 3 3 3 4 4 4 3 3 3 2 3 3 3 2 2 3 3 3 3 3 3 2 2 2 2 2
3 5 3 2 3 9 7 3 3 4 6 6 7 7 4 3 4 3 2 2 4 4 3 3 3 3 3 3 2 2 2 2 2 3 4 3 3 3 3 2 2 2 2 2
2 3 4 3 3 7 6 2 1 2 5 4 4 4 3 2 3 5 3 3 3 2 2 2 2 2 3 3 2 2 3 3 3 4 4 3 3 3 3 3 2 2 2 2
2 2 4 4 5 9 5 1 2 2 6 3 2 3 2 3 5 5 3 3 3 3 3 2 2 2 3 3 2 3 3 4 5 4 3 3 3 3 2 2 2 1 2 2
6 5 5 5 5 10 3 3 5 6 3 1 2 2 3 4 4 4 4 3 3 3 3 2 2 3 3 2 2 3 4 5 4 3 3 3 3 2 2 1 1 1 1 1
6 7 6 8 8 5 4 5 4 2 2 3 3 3 3 3 4 4 4 4 4 4 4 3 2 4 4 3 2 4 4 4 4 3 3 3 3 2 2 1 1 1 1 1
4 2 3 5 8 5 5 4 3 2 3 3 3 3 2 4 4 4 4 4 4 4 3 3 3 4 4 4 3 4 4 3 3 3 3 2 2 2 2 1 1 1 1 1
5 4 3 5 6 5 4 5 4 3 3 3 3 2 3 3 4 4 4 4 4 4 3 3 3 4 5 4 4 4 3 3 3 3 2 2 2 2 2 2 2 2 2 2
4 6 6 7 5 4 6 5 3 2 3 3 2 3 3 3 4 4 4 4 3 4 3 3 4 4 4 4 4 4 3 3 3 3 2 2 2 1 1 1 2 3 3 4
Wind_Direction
48 76 161 217 208 207 194 217 265 268 272 266 255 266 259 241 200 196 197 189 178 192 180 124 105 92 79 61 56 48 41 25 34 34 26 21 3 354 354 355 10 11 7 9
52 281 242 232 207 142 156 239 277 294 318 293 273 276 264 236 211 204 196 195 188 166 129 107 104 82 78 65 49 48 44 33 38 24 346 335 319 318 332 348 1 5 8 6
170 233 254 144 76 107 266 213 239 273 318 319 308 300 282 263 173 171 181 181 184 173 166 151 109 84 70 50 36 31 18 27 27 30 27 16 17 2 8 360 352 350 4 7
241 274 187 122 228 167 248 243 241 269 325 294 207 279 277 245 250 225 209 187 184 173 148 145 123 105 98 287 343 26 21 22 14 29 52 48 27 356 323 315 323 331 350 351
282 281 168 200 248 203 222 261 267 263 208 298 278 233 278 252 247 243 227 207 198 181 156 155 157 173 189 283 348 352 25 16 12 16 40 67 11 330 325 331 333 332 339 337
276 296 195 207 288 208 126 38 29 44 78 268 236 196 272 236 230 233 219 208 201 187 172 159 146 137 75 19 8 10 30 352 359 7 11 28 0 338 345 339 330 322 320 321
329 311 321 58 45 12 69 84 31 356 345 254 248 210 252 262 248 205 198 199 201 187 175 171 144 117 40 10 349 351 8 335 332 346 348 334 309 288 283 299 305 305 306 309
182 286 269 218 176 192 182 138 154 203 238 282 295 235 257 282 274 161 160 168 168 176 180 189 190 186 195 284 321 328 327 323 324 328 318 313 298 278 278 281 284 289 290 288
177 261 318 315 212 152 141 167 168 138 204 272 269 282 297 319 25 67 108 134 166 190 203 206 203 199 212 255 278 286 304 321 320 312 311 305 301 300 290 294 298 295 295 300
153 234 295 322 44 27 135 141 104 123 178 266 285 267 250 248 244 240 224 220 250 252 235 240 235 247 252 245 265 294 299 299 307 304 296 310 300 296 290 292 296 297 298 298
118 148 305 339 211 210 136 131 129 142 174 186 271 270 233 214 215 209 222 222 220 232 233 226 244 256 268 274 269 288 307 316 310 302 298 301 299 303 305 294 289 290 290 294
132 123 241 260 272 240 184 177 153 166 235 203 229 268 275 221 230 197 218 240 243 237 250 255 247 263 277 293 298 295 297 303 299 296 297 294 298 307 306 301 300 297 293 294
136 119 44 336 325 339 257 203 170 144 145 189 214 264 311 344 326 250 219 242 265 267 272 274 270 267 278 292 298 298 300 299 304 306 306 310 307 305 301 302 303 301 298 297
114 140 178 206 230 209 240 238 192 158 191 225 232 257 284 288 280 287 277 258 255 269 262 265 274 282 287 291 295 304 313 312 314 312 307 304 300 295 297 301 302 299 293 290
106 176 223 251 266 241 240 239 214 206 208 217 247 253 265 256 251 256 253 253 264 274 284 284 279 282 293 307 310 312 314 314 308 309 308 298 298 300 305 307 306 308 302 300
96 156 181 286 282 265 266 252 231 232 232 241 263 272 269 266 252 254 257 249 256 263 273 282 283 283 289 292 297 303 301 301 302 304 303 304 308 311 306 304 309 318 323 323
143 137 145 265 316 348 272 236 210 219 220 209 234 252 280 287 262 249 245 241 245 256 268 275 276 270 275 280 281 281 287 295 310 309 306 306 308 307 307 312 324 320 312 315
144 137 149 242 25 253 248 231 205 218 244 226 246 270 273 263 277 262 240 223 247 262 266 273 282 287 284 282 287 292 298 300 304 304 303 304 305 305 306 307 309 307 307 303
155 148 146 156 245 276 286 259 185 200 265 233 239 267 290 322 334 300 257 247 247 256 263 268 274 280 288 286 281 295 299 299 298 295 294 294 291 291 292 290 292 294 301 302
91 126 143 165 210 247 257 265 188 110 280 256 220 244 275 356 307 281 294 303 295 289 282 287 289 293 292 291 289 288 284 288 285 286 284 285 283 278 276 279 284 294 291 293
150 162 188 198 231 261 257 241 111 168 260 285 223 231 217 233 247 274 298 302 296 298 297 295 294 294 290 290 290 284 280 278 284 290 287 288 284 280 273 280 286 293 303 310
176 176 194 178 217 254 215 136 189 234 279 275 253 245 240 261 282 291 293 293 299 304 305 299 295 295 294 286 275 277 281 286 293 291 286 284 281 282 292 286 290 296 297 299
199 190 186 197 220 255 195 209 242 246 257 262 255 263 255 267 276 286 291 287 290 292 296 299 286 293 295 286 268 271 285 298 295 288 281 278 279 276 281 265 270 282 279 279
250 202 191 247 261 259 252 257 270 244 253 265 259 257 247 258 268 280 285 290 291 292 290 295 290 289 291 294 285 272 283 292 291 277 273 273 269 276 284 281 268 259 255 262
221 181 205 251 271 292 270 250 254 265 282 288 289 265 248 255 269 269 276 283 284 289 292 288 279 280 284 294 293 290 284 287 290 276 267 273 265 258 262 270 267 269 256 256
201 184 190 231 237 228 266 269 242 250 268 272 282 289 281 257 265 275 276 277 280 285 289 290 286 282 284 287 290 292 287 277 273 276 271 261 261 261 265 277 305 306 301 300